This demonstration page uses our WeatherBlox Daily Observations layout. Learn more.

Left ArrowRight Arrow

Hourly Observations for October 14, 2015

Temp ( °F °C ) Dew Point ( °F °C ) Humidity (%) Winds ( mph kmh ) Pressure ( in mb ) Visibility ( mi km ) Precip ( " mm )
12:53 am 00:53 Clear 63 17.2 41 5 45 45 NNW 5 7 29.98 1015 10 16 0.00 0.00
1:53 am 01:53 Clear 63 17.2 42 5.6 47 47 NNW 3 6 29.98 1015 10 16 0.00 0.00
2:53 am 02:53 Clear 60 15.6 40 4.4 47 47 Calm 29.98 1015 10 16 0.00 0.00
3:53 am 03:53 Clear 61 16.1 41 5 48 48 Calm 29.96 1015 10 16 0.00 0.00
4:53 am 04:53 Clear 61 16.1 42 5.6 50 50 Calm 29.96 1014 10 16 0.00 0.00
5:53 am 05:53 Clear 59 15 41 5 51 51 Calm 29.96 1015 10 16 0.00 0.00
6:53 am 06:53 Clear 57 13.9 40 4.4 53 53 Calm 29.97 1015 10 16 0.00 0.00
7:53 am 07:53 Sunny 57 13.9 40 4.4 53 53 Calm 29.98 1015 10 16 0.00 0.00
8:53 am 08:53 Sunny 64 17.8 40 4.4 41 41 Calm 29.98 1015 10 16 0.00 0.00
9:53 am 09:53 Sunny 76 24.4 41 5 29 29 Calm 29.98 1015 10 16 0.00 0.00
10:53 am 10:53 Sunny 81 27.2 42 5.6 25 25 Calm 29.98 1015 10 16 0.00 0.00
11:53 am 11:53 Sunny 86 30 38 3.3 18 18 Calm 29.96 1015 10 16 0.00 0.00
12:53 pm 12:53 Sunny 90 32.2 42 5.6 19 19 Calm 29.93 1014 10 16 0.00 0.00
1:53 pm 13:53 Sunny 92 33.3 39 3.9 16 16 VRB 5 7 29.90 1013 10 16 0.00 0.00
2:53 pm 14:53 Sunny 95 35 32 0 11 11 S 7 11 29.87 1011 10 16 0.00 0.00
3:53 pm 15:53 Sunny 95 35 39 3.9 14 14 SSW 6 9 29.85 1011 10 16 0.00 0.00
4:53 pm 16:53 Sunny 95 35 40 4.4 15 15 S 7 11 29.84 1011 10 16 0.00 0.00
5:53 pm 17:53 Sunny 93 33.9 42 5.6 17 17 SSE 6 9 29.83 1010 10 16 0.00 0.00
6:53 pm 18:53 Clear 84 28.9 44 6.7 25 25 SSE 8 13 29.83 1010 10 16 0.00 0.00
7:53 pm 19:53 Clear 80 26.7 47 8.3 31 31 SSE 6 9 29.85 1011 10 16 0.00 0.00
8:53 pm 20:53 Clear 76 24.4 46 7.8 35 35 NW 3 6 29.88 1012 10 16 0.00 0.00
9:53 pm 21:53 Clear 74 23.3 46 7.8 37 37 Calm 29.89 1012 10 16 0.00 0.00
10:53 pm 22:53 Clear 69 20.6 45 7.2 42 42 NNE 5 7 29.91 1013 10 16 0.00 0.00
11:53 pm 23:53 Clear 68 20 45 7.2 44 44 Calm 29.90 1013 10 16 0.00 0.00

Powered by AerisWeather